Regional Weather Roundup
Issued by NWS

Home | Current Version | Previous Version | Graphics & Text | Print | Product List | Glossary On
Versions: 1 2 3 4 5 6 7 8 9 10 11 12 13 14 15 16 17 18 19 20 21 22 23 24 25 26 27 28 29 30 31 32 33 34 35 36 37 38 39 40 41 42 43 44 45 46 47 48 49 50
000
ASUS43 KFSD 202310
RWRSD

WEATHER ROUNDUP FOR SOUTH DAKOTA
NATIONAL WEATHER SERVICE SIOUX FALLS SD
600 PM CDT FRI APR 20 2018

NOTE: "FAIR" INDICATES FEW OR NO CLOUDS BELOW 12,000 FEET WITH NO
SIGNIFICANT WEATHER AND/OR OBSTRUCTIONS TO VISIBILITY.


SDZ001>005-009-010-012>017-210000-
NORTHWEST AND NORTH CENTRAL SOUTH DAKOTA

CITY           SKY/WX    TMP DP  RH WIND       PRES   REMARKS
BUFFALO          N/A     54  35  48 SE26G35   30.05R
FAITH            N/A     46  42  86 S23       30.21R
MOBRIDGE       CLOUDY    54  34  46 SE15      30.25R
$$

SDZ012>016-024>037-041>051-057-063-072>074-210000-
SOUTHWEST AND SOUTH CENTRAL SOUTH DAKOTA

CITY           SKY/WX    TMP DP  RH WIND       PRES   REMARKS
RAPID CTY ARPT CLOUDY    41  37  86 SE23      30.19R
PIERRE         CLOUDY    50  36  58 SE12      30.27S
CUSTER         LGT SNOW  34  31  88 SE8       30.14R FOG     WCI  27
ELLSWORTH AFB  CLOUDY    42  41  95 S20       30.18
PHILIP         LGT RAIN  46  42  86 S7        30.26R
PINE RIDGE     LGT RAIN  40  38  93 E8        30.19S
SPEARFISH      CLOUDY    46  41  81 SE12      30.11R
WINNER         CLOUDY    46  34  62 SE9       30.28R
$$

SDZ004>011-016>023-039-040-210000-
NORTHEAST SOUTH DAKOTA

CITY           SKY/WX    TMP DP  RH WIND       PRES   REMARKS
ABERDEEN       PTSUNNY   53  38  56 S12       30.35R
WATERTOWN      PTSUNNY   48  40  73 S12       30.36R
BROOKINGS      PTSUNNY   47  39  74 SE9       30.38R
SISSETON         N/A     50  40  68 SE10      30.36R
$$

SDZ017-020-022-023-036>040-048>070-210000-
SOUTHEAST SOUTH DAKOTA

CITY           SKY/WX    TMP DP  RH WIND       PRES   REMARKS
SIOUX FALLS    CLOUDY    47  36  65 E9        30.37R
HURON          CLOUDY    49  37  63 S9        30.35S
CHAMBERLAIN    CLOUDY    48  40  74 E8G16     30.30S
MITCHELL       CLOUDY    44  38  79 E6        30.35S
YANKTON        CLOUDY    55  34  45 SE8       30.33S
$$

ABBREVIATIONS USED IN REMARKS
   TC - TEMPERATURE IN CELSIUS
  WCI - WIND CHILL INDEX
   HX - HEAT INDEX
  VSB - VISIBILITY





USA.gov is the U.S. government's official web portal to all federal, state and local government web resources and services.